QPF
0.10 0.14 0.17 0.21 0.23 0.27 0.29 0.33 0.29 0.22 0.19 0.13 0.10 0.09 0.07 0.04 0.02 0.03 0.04 0.02 0.01 0.01 0.03 0.05 0.05 0.04 0.03 0.03 0.04 0.05 0.06 0.06 0.06 0.05 0.04 0.05 0.03 0.01 0.01 0.00 0.00 0.00 0.01
0.07 0.10 0.13 0.20 0.25 0.26 0.27 0.27 0.25 0.28 0.22 0.16 0.11 0.08 0.06 0.05 0.04 0.03 0.05 0.04 0.01 0.01 0.02 0.05 0.06 0.04 0.03 0.02 0.02 0.03 0.04 0.05 0.05 0.05 0.04 0.03 0.02 0.02 0.01 0.00 0.01 0.01 0.01
0.05 0.09 0.10 0.13 0.22 0.28 0.28 0.28 0.24 0.27 0.22 0.17 0.14 0.09 0.05 0.03 0.02 0.02 0.03 0.03 0.02 0.01 0.01 0.03 0.06 0.04 0.03 0.03 0.03 0.02 0.02 0.03 0.04 0.04 0.03 0.03 0.02 0.01 0.01 0.00 0.01 0.01 0.00
0.03 0.05 0.09 0.12 0.15 0.21 0.25 0.28 0.29 0.30 0.26 0.23 0.22 0.14 0.09 0.06 0.02 0.01 0.03 0.03 0.04 0.03 0.02 0.02 0.03 0.04 0.05 0.04 0.03 0.02 0.02 0.02 0.02 0.03 0.02 0.02 0.02 0.01 0.01 0.00 0.00 0.00 0.00
0.01 0.03 0.06 0.09 0.14 0.16 0.17 0.21 0.25 0.25 0.24 0.23 0.23 0.21 0.15 0.10 0.06 0.03 0.03 0.03 0.04 0.04 0.04 0.01 0.01 0.03 0.04 0.03 0.03 0.03 0.03 0.02 0.01 0.01 0.02 0.02 0.01 0.01 0.01 0.00 0.00 0.00 0.01
0.01 0.02 0.03 0.06 0.11 0.13 0.15 0.16 0.22 0.24 0.23 0.23 0.21 0.18 0.14 0.11 0.08 0.07 0.06 0.05 0.04 0.05 0.07 0.04 0.02 0.01 0.02 0.02 0.03 0.03 0.03 0.02 0.02 0.01 0.01 0.01 0.01 0.01 0.01 0.01 0.00 0.00 0.01
0.02 0.02 0.02 0.03 0.07 0.09 0.11 0.15 0.20 0.23 0.23 0.25 0.23 0.19 0.14 0.10 0.11 0.08 0.06 0.08 0.09 0.09 0.08 0.07 0.04 0.03 0.01 0.01 0.01 0.02 0.03 0.02 0.02 0.02 0.02 0.01 0.01 0.01 0.00 0.00 0.00 0.00 0.00
0.03 0.02 0.02 0.03 0.05 0.08 0.09 0.13 0.18 0.20 0.19 0.22 0.22 0.22 0.20 0.16 0.12 0.08 0.06 0.05 0.07 0.11 0.09 0.06 0.05 0.04 0.02 0.01 0.00 0.01 0.01 0.02 0.02 0.02 0.02 0.02 0.02 0.01 0.00 0.00 0.00 0.00 0.00
0.04 0.04 0.03 0.03 0.04 0.06 0.07 0.09 0.13 0.17 0.19 0.20 0.21 0.22 0.18 0.16 0.16 0.09 0.07 0.05 0.03 0.08 0.09 0.08 0.06 0.05 0.03 0.03 0.02 0.00 0.00 0.01 0.01 0.02 0.03 0.03 0.02 0.01 0.00 0.00 0.00 0.00 0.00
0.03 0.03 0.04 0.03 0.03 0.04 0.05 0.06 0.09 0.13 0.18 0.19 0.21 0.19 0.16 0.18 0.20 0.16 0.11 0.08 0.06 0.06 0.07 0.09 0.08 0.07 0.05 0.04 0.04 0.01 0.00 0.00 0.01 0.02 0.02 0.03 0.02 0.01 0.00 0.00 0.00 0.00 0.00
0.02 0.03 0.03 0.03 0.03 0.03 0.04 0.05 0.08 0.11 0.14 0.16 0.17 0.17 0.16 0.18 0.17 0.19 0.17 0.15 0.14 0.10 0.07 0.09 0.09 0.07 0.07 0.06 0.07 0.03 0.01 0.00 0.00 0.01 0.02 0.03 0.04 0.03 0.02 0.01 0.01 0.01 0.00
0.03 0.03 0.02 0.02 0.03 0.04 0.04 0.04 0.06 0.08 0.11 0.15 0.18 0.19 0.17 0.16 0.13 0.15 0.17 0.18 0.18 0.16 0.14 0.12 0.10 0.08 0.07 0.09 0.10 0.08 0.04 0.01 0.00 0.00 0.01 0.03 0.05 0.05 0.06 0.04 0.02 0.02 0.01
0.02 0.02 0.02 0.03 0.03 0.04 0.04 0.05 0.05 0.06 0.08 0.11 0.15 0.19 0.20 0.17 0.15 0.18 0.19 0.20 0.19 0.17 0.18 0.17 0.11 0.11 0.08 0.07 0.12 0.14 0.07 0.02 0.00 0.00 0.00 0.01 0.02 0.03 0.05 0.05 0.05 0.03 0.02
0.01 0.02 0.02 0.02 0.02 0.03 0.04 0.05 0.05 0.05 0.07 0.09 0.10 0.16 0.19 0.16 0.17 0.16 0.16 0.20 0.18 0.17 0.20 0.18 0.15 0.14 0.11 0.08 0.14 0.16 0.06 0.03 0.01 0.00 0.00 0.00 0.01 0.01 0.02 0.03 0.05 0.04 0.03
0.01 0.01 0.01 0.02 0.02 0.02 0.03 0.05 0.06 0.06 0.08 0.10 0.11 0.14 0.15 0.16 0.17 0.16 0.16 0.18 0.19 0.17 0.16 0.17 0.17 0.14 0.17 0.16 0.21 0.13 0.05 0.05 0.02 0.01 0.00 0.00 0.00 0.00 0.01 0.01 0.02 0.02 0.02
0.02 0.03 0.02 0.03 0.03 0.03 0.03 0.05 0.06 0.08 0.09 0.09 0.10 0.11 0.12 0.13 0.16 0.17 0.16 0.15 0.15 0.15 0.16 0.17 0.17 0.17 0.20 0.19 0.24 0.13 0.10 0.13 0.07 0.02 0.01 0.00 0.00 0.00 0.00 0.01 0.00 0.00 0.00
0.02 0.03 0.04 0.05 0.04 0.04 0.04 0.05 0.06 0.08 0.09 0.09 0.08 0.09 0.09 0.11 0.13 0.15 0.16 0.15 0.14 0.14 0.12 0.15 0.16 0.15 0.23 0.25 0.25 0.20 0.17 0.13 0.07 0.05 0.02 0.01 0.00 0.00 0.00 0.00 0.00 0.00 0.00
0.01 0.02 0.03 0.05 0.05 0.04 0.05 0.05 0.04 0.06 0.08 0.09 0.08 0.09 0.10 0.11 0.14 0.15 0.15 0.14 0.13 0.14 0.13 0.12 0.13 0.13 0.15 0.20 0.24 0.25 0.22 0.17 0.12 0.10 0.06 0.03 0.01 0.01 0.01 0.00 0.00 0.00 0.00
0.01 0.01 0.02 0.03 0.05 0.06 0.05 0.06 0.05 0.05 0.04 0.06 0.07 0.07 0.10 0.12 0.12 0.15 0.16 0.15 0.13 0.13 0.14 0.14 0.12 0.11 0.12 0.15 0.23 0.24 0.23 0.20 0.17 0.14 0.11 0.07 0.05 0.04 0.03 0.02 0.01 0.01 0.01
0.01 0.01 0.02 0.02 0.03 0.04 0.06 0.06 0.06 0.05 0.04 0.04 0.06 0.07 0.09 0.10 0.12 0.15 0.16 0.17 0.15 0.15 0.14 0.14 0.14 0.13 0.11 0.13 0.18 0.19 0.19 0.17 0.14 0.12 0.11 0.08 0.09 0.09 0.08 0.06 0.05 0.03 0.02
0.00 0.01 0.02 0.02 0.02 0.02 0.02 0.02 0.03 0.04 0.04 0.05 0.05 0.07 0.08 0.08 0.09 0.12 0.15 0.17 0.17 0.16 0.15 0.14 0.13 0.14 0.13 0.14 0.13 0.13 0.15 0.17 0.16 0.13 0.13 0.12 0.10 0.09 0.09 0.09 0.09 0.07 0.05
0.00 0.00 0.01 0.01 0.02 0.02 0.01 0.01 0.02 0.03 0.04 0.04 0.04 0.05 0.06 0.05 0.04 0.05 0.08 0.14 0.19 0.17 0.14 0.11 0.11 0.11 0.09 0.10 0.11 0.13 0.15 0.17 0.18 0.14 0.12 0.13 0.12 0.12 0.10 0.09 0.10 0.09 0.07
0.00 0.00 0.00 0.01 0.01 0.02 0.01 0.01 0.01 0.02 0.03 0.04 0.05 0.06 0.05 0.04 0.05 0.05 0.06 0.05 0.08 0.13 0.18 0.18 0.14 0.10 0.09 0.09 0.11 0.14 0.15 0.16 0.16 0.16 0.15 0.16 0.16 0.14 0.11 0.10 0.12 0.10 0.09
0.00 0.00 0.00 0.01 0.01 0.01 0.01 0.01 0.01 0.02 0.04 0.04 0.05 0.07 0.06 0.05 0.05 0.06 0.07 0.07 0.06 0.06 0.08 0.13 0.13 0.14 0.16 0.16 0.16 0.19 0.23 0.25 0.26 0.27 0.23 0.22 0.21 0.18 0.14 0.11 0.11 0.10 0.08
0.00 0.00 0.01 0.01 0.01 0.01 0.01 0.01 0.02 0.04 0.05 0.06 0.07 0.06 0.06 0.06 0.07 0.06 0.06 0.08 0.09 0.08 0.08 0.11 0.12 0.14 0.16 0.20 0.21 0.24 0.27 0.29 0.30 0.30 0.25 0.22 0.20 0.18 0.16 0.13 0.11 0.10 0.08
0.00 0.00 0.00 0.01 0.01 0.01 0.01 0.01 0.02 0.04 0.05 0.07 0.07 0.07 0.05 0.03 0.02 0.03 0.05 0.09 0.10 0.08 0.07 0.08 0.11 0.13 0.14 0.18 0.20 0.18 0.19 0.20 0.22 0.24 0.20 0.18 0.17 0.14 0.13 0.11 0.10 0.10 0.09
MSLP
1012.25 1012.34 1012.44 1012.57 1012.74 1012.97 1013.25 1013.54 1013.83 1014.05 1014.17 1014.17 1014.04 1013.82 1013.55 1013.31 1013.16 1013.15 1013.29 1013.58 1013.98 1014.45 1014.92 1015.34 1015.68 1015.93 1016.11 1016.22 1016.31 1016.42 1016.55 1016.73 1016.96 1017.21 1017.49 1017.77 1018.03 1018.27 1018.49 1018.67 1018.82 1018.95 1019.06
1012.01 1012.02 1012.06 1012.16 1012.32 1012.56 1012.87 1013.22 1013.57 1013.87 1014.06 1014.12 1014.04 1013.85 1013.59 1013.33 1013.13 1013.05 1013.11 1013.34 1013.69 1014.13 1014.62 1015.08 1015.50 1015.84 1016.10 1016.29 1016.45 1016.59 1016.74 1016.91 1017.11 1017.35 1017.60 1017.86 1018.12 1018.37 1018.60 1018.79 1018.96 1019.11 1019.22
1011.73 1011.68 1011.68 1011.75 1011.90 1012.16 1012.50 1012.90 1013.31 1013.69 1013.96 1014.10 1014.09 1013.95 1013.71 1013.43 1013.18 1013.01 1012.98 1013.10 1013.36 1013.74 1014.19 1014.66 1015.12 1015.53 1015.88 1016.17 1016.41 1016.61 1016.81 1017.00 1017.21 1017.43 1017.67 1017.92 1018.18 1018.43 1018.66 1018.88 1019.07 1019.23 1019.35
1011.44 1011.34 1011.31 1011.35 1011.50 1011.77 1012.13 1012.57 1013.04 1013.48 1013.84 1014.06 1014.13 1014.05 1013.84 1013.56 1013.27 1013.03 1012.90 1012.89 1013.02 1013.29 1013.65 1014.09 1014.55 1015.00 1015.43 1015.81 1016.15 1016.45 1016.72 1016.97 1017.21 1017.44 1017.69 1017.93 1018.18 1018.43 1018.68 1018.91 1019.12 1019.29 1019.44
1011.19 1011.05 1010.98 1011.01 1011.15 1011.41 1011.78 1012.24 1012.74 1013.22 1013.64 1013.94 1014.09 1014.08 1013.94 1013.69 1013.39 1013.09 1012.86 1012.72 1012.71 1012.84 1013.08 1013.43 1013.85 1014.31 1014.79 1015.25 1015.69 1016.09 1016.46 1016.79 1017.09 1017.37 1017.63 1017.88 1018.14 1018.39 1018.64 1018.88 1019.11 1019.30 1019.46
1011.02 1010.84 1010.75 1010.76 1010.88 1011.12 1011.46 1011.90 1012.40 1012.90 1013.35 1013.71 1013.94 1014.03 1013.96 1013.78 1013.50 1013.18 1012.88 1012.63 1012.49 1012.46 1012.56 1012.80 1013.14 1013.57 1014.06 1014.58 1015.10 1015.60 1016.07 1016.49 1016.87 1017.20 1017.51 1017.78 1018.05 1018.30 1018.56 1018.81 1019.04 1019.26 1019.44
1010.97 1010.77 1010.65 1010.63 1010.71 1010.90 1011.20 1011.59 1012.04 1012.52 1012.99 1013.39 1013.69 1013.87 1013.91 1013.81 1013.59 1013.30 1012.97 1012.65 1012.39 1012.22 1012.18 1012.27 1012.51 1012.87 1013.34 1013.88 1014.45 1015.04 1015.60 1016.12 1016.58 1016.98 1017.33 1017.64 1017.92 1018.18 1018.44 1018.69 1018.94 1019.17 1019.39
1011.08 1010.85 1010.70 1010.63 1010.66 1010.79 1011.02 1011.33 1011.71 1012.13 1012.57 1012.99 1013.35 1013.61 1013.76 1013.77 1013.65 1013.42 1013.11 1012.76 1012.42 1012.14 1011.97 1011.93 1012.04 1012.31 1012.72 1013.25 1013.85 1014.48 1015.11 1015.71 1016.25 1016.72 1017.12 1017.46 1017.77 1018.04 1018.30 1018.56 1018.82 1019.07 1019.31
1011.32 1011.06 1010.88 1010.78 1010.75 1010.80 1010.93 1011.14 1011.43 1011.77 1012.16 1012.56 1012.95 1013.28 1013.53 1013.66 1013.65 1013.51 1013.26 1012.93 1012.56 1012.20 1011.93 1011.76 1011.76 1011.92 1012.25 1012.73 1013.32 1013.97 1014.64 1015.30 1015.90 1016.43 1016.88 1017.26 1017.59 1017.89 1018.16 1018.43 1018.69 1018.96 1019.22
1011.65 1011.37 1011.16 1011.02 1010.94 1010.91 1010.95 1011.06 1011.23 1011.47 1011.78 1012.14 1012.52 1012.89 1013.21 1013.45 1013.55 1013.52 1013.35 1013.07 1012.71 1012.33 1011.98 1011.73 1011.62 1011.68 1011.92 1012.33 1012.87 1013.51 1014.19 1014.87 1015.52 1016.09 1016.60 1017.02 1017.39 1017.71 1018.00 1018.29 1018.57 1018.85 1019.13
1011.98 1011.69 1011.47 1011.30 1011.18 1011.10 1011.05 1011.06 1011.12 1011.25 1011.46 1011.75 1012.09 1012.46 1012.82 1013.12 1013.32 1013.39 1013.31 1013.10 1012.78 1012.41 1012.04 1011.73 1011.55 1011.52 1011.68 1012.00 1012.48 1013.08 1013.74 1014.43 1015.09 1015.70 1016.25 1016.73 1017.14 1017.50 1017.82 1018.13 1018.43 1018.74 1019.04
1012.24 1011.96 1011.75 1011.58 1011.43 1011.31 1011.21 1011.12 1011.09 1011.11 1011.21 1011.40 1011.68 1012.01 1012.36 1012.68 1012.94 1013.07 1013.08 1012.94 1012.69 1012.36 1012.00 1011.68 1011.45 1011.37 1011.45 1011.70 1012.11 1012.64 1013.26 1013.93 1014.60 1015.24 1015.82 1016.35 1016.81 1017.22 1017.60 1017.94 1018.28 1018.60 1018.92
1012.38 1012.13 1011.94 1011.79 1011.65 1011.51 1011.37 1011.23 1011.10 1011.03 1011.03 1011.11 1011.29 1011.54 1011.84 1012.14 1012.40 1012.58 1012.64 1012.57 1012.39 1012.12 1011.81 1011.52 1011.28 1011.17 1011.19 1011.38 1011.71 1012.18 1012.75 1013.38 1014.04 1014.69 1015.31 1015.88 1016.41 1016.88 1017.31 1017.71 1018.08 1018.42 1018.76
1012.40 1012.19 1012.04 1011.91 1011.79 1011.66 1011.50 1011.33 1011.15 1011.00 1010.90 1010.88 1010.94 1011.09 1011.30 1011.54 1011.77 1011.95 1012.04 1012.03 1011.91 1011.72 1011.48 1011.23 1011.02 1010.90 1010.90 1011.03 1011.30 1011.70 1012.21 1012.79 1013.43 1014.08 1014.72 1015.34 1015.92 1016.46 1016.96 1017.41 1017.82 1018.20 1018.55
1012.32 1012.16 1012.04 1011.95 1011.85 1011.74 1011.59 1011.40 1011.19 1010.99 1010.81 1010.69 1010.65 1010.69 1010.79 1010.94 1011.11 1011.26 1011.35 1011.37 1011.32 1011.20 1011.04 1010.86 1010.70 1010.60 1010.59 1010.69 1010.91 1011.24 1011.68 1012.21 1012.81 1013.45 1014.11 1014.76 1015.39 1015.99 1016.55 1017.05 1017.51 1017.92 1018.28
1012.20 1012.07 1011.98 1011.91 1011.84 1011.75 1011.61 1011.43 1011.21 1010.98 1010.75 1010.56 1010.42 1010.36 1010.35 1010.41 1010.50 1010.59 1010.67 1010.71 1010.71 1010.66 1010.57 1010.47 1010.37 1010.32 1010.32 1010.40 1010.58 1010.85 1011.23 1011.70 1012.25 1012.86 1013.51 1014.18 1014.85 1015.49 1016.09 1016.65 1017.14 1017.58 1017.97
1012.10 1011.99 1011.91 1011.85 1011.79 1011.71 1011.58 1011.41 1011.20 1010.96 1010.71 1010.47 1010.26 1010.11 1010.02 1009.98 1009.99 1010.03 1010.08 1010.12 1010.15 1010.16 1010.14 1010.12 1010.09 1010.08 1010.11 1010.19 1010.34 1010.57 1010.89 1011.30 1011.79 1012.36 1012.99 1013.65 1014.33 1015.00 1015.63 1016.21 1016.74 1017.20 1017.60
1012.07 1011.95 1011.86 1011.78 1011.71 1011.62 1011.50 1011.34 1011.14 1010.91 1010.65 1010.39 1010.15 1009.95 1009.78 1009.67 1009.61 1009.60 1009.61 1009.65 1009.69 1009.74 1009.78 1009.82 1009.86 1009.91 1009.97 1010.06 1010.20 1010.39 1010.66 1011.02 1011.46 1011.98 1012.57 1013.21 1013.87 1014.54 1015.18 1015.78 1016.32 1016.80 1017.22
1012.11 1011.96 1011.83 1011.72 1011.62 1011.51 1011.38 1011.23 1011.04 1010.81 1010.57 1010.31 1010.06 1009.82 1009.61 1009.45 1009.33 1009.27 1009.24 1009.26 1009.31 1009.38 1009.46 1009.55 1009.65 1009.74 1009.84 1009.95 1010.09 1010.28 1010.52 1010.83 1011.22 1011.70 1012.24 1012.85 1013.49 1014.14 1014.77 1015.37 1015.91 1016.40 1016.84
1012.20 1012.01 1011.83 1011.67 1011.52 1011.37 1011.22 1011.06 1010.88 1010.66 1010.43 1010.19 1009.93 1009.69 1009.46 1009.25 1009.09 1008.98 1008.91 1008.90 1008.94 1009.01 1009.11 1009.24 1009.37 1009.51 1009.65 1009.80 1009.96 1010.14 1010.38 1010.67 1011.04 1011.48 1011.99 1012.56 1013.17 1013.80 1014.41 1015.00 1015.54 1016.04 1016.49
1012.26 1012.04 1011.81 1011.60 1011.40 1011.22 1011.03 1010.85 1010.66 1010.46 1010.24 1010.00 1009.75 1009.50 1009.25 1009.02 1008.81 1008.65 1008.54 1008.49 1008.49 1008.55 1008.65 1008.79 1008.95 1009.12 1009.30 1009.49 1009.69 1009.91 1010.16 1010.46 1010.83 1011.26 1011.75 1012.30 1012.89 1013.50 1014.10 1014.68 1015.23 1015.73 1016.20
1012.26 1012.01 1011.75 1011.50 1011.26 1011.03 1010.82 1010.61 1010.41 1010.19 1009.97 1009.74 1009.49 1009.22 1008.96 1008.69 1008.45 1008.24 1008.07 1007.96 1007.92 1007.94 1008.01 1008.14 1008.31 1008.51 1008.73 1008.96 1009.21 1009.48 1009.79 1010.13 1010.52 1010.97 1011.48 1012.04 1012.62 1013.23 1013.83 1014.41 1014.97 1015.49 1015.98
1012.13 1011.87 1011.61 1011.34 1011.08 1010.82 1010.58 1010.35 1010.13 1009.90 1009.67 1009.42 1009.15 1008.87 1008.58 1008.28 1007.98 1007.71 1007.48 1007.31 1007.20 1007.16 1007.20 1007.30 1007.47 1007.68 1007.93 1008.21 1008.51 1008.85 1009.22 1009.63 1010.08 1010.58 1011.13 1011.72 1012.33 1012.95 1013.58 1014.18 1014.76 1015.31 1015.84
1011.83 1011.61 1011.36 1011.10 1010.84 1010.58 1010.33 1010.09 1009.84 1009.60 1009.34 1009.07 1008.79 1008.47 1008.14 1007.80 1007.45 1007.12 1006.82 1006.57 1006.39 1006.28 1006.26 1006.32 1006.46 1006.67 1006.93 1007.25 1007.62 1008.02 1008.46 1008.95 1009.48 1010.05 1010.67 1011.31 1011.98 1012.65 1013.31 1013.96 1014.58 1015.18 1015.75
1011.37 1011.20 1010.99 1010.78 1010.55 1010.31 1010.06 1009.82 1009.57 1009.31 1009.03 1008.74 1008.42 1008.08 1007.71 1007.32 1006.92 1006.52 1006.15 1005.83 1005.57 1005.39 1005.31 1005.31 1005.41 1005.60 1005.87 1006.21 1006.61 1007.07 1007.58 1008.14 1008.76 1009.41 1010.10 1010.82 1011.55 1012.28 1013.01 1013.71 1014.39 1015.04 1015.67
1010.77 1010.65 1010.51 1010.35 1010.17 1009.97 1009.76 1009.53 1009.29 1009.03 1008.75 1008.44 1008.10 1007.73 1007.33 1006.90 1006.45 1006.01 1005.58 1005.19 1004.86 1004.61 1004.46 1004.40 1004.45 1004.60 1004.85 1005.19 1005.61 1006.10 1006.66 1007.28 1007.96 1008.68 1009.45 1010.24 1011.04 1011.85 1012.64 1013.41 1014.15 1014.85 1015.53
Thickness
5726 5728 5731 5733 5734 5735 5736 5738 5740 5743 5746 5751 5754 5758 5760 5763 5764 5763 5760 5759 5758 5757 5756 5755 5755 5755 5755 5755 5755 5754 5754 5753 5753 5753 5752 5752 5751 5751 5750 5750 5749 5749 5749
5721 5723 5725 5728 5730 5732 5733 5735 5736 5738 5742 5747 5751 5755 5758 5761 5763 5763 5760 5758 5758 5757 5756 5756 5755 5755 5754 5754 5754 5754 5753 5753 5752 5752 5751 5751 5750 5750 5749 5749 5748 5748 5747
5715 5718 5720 5722 5725 5727 5729 5731 5733 5734 5737 5742 5746 5751 5755 5759 5761 5762 5761 5758 5758 5757 5756 5756 5755 5755 5754 5754 5754 5753 5753 5752 5752 5751 5750 5750 5749 5749 5748 5748 5747 5747 5746
5708 5711 5713 5716 5719 5722 5725 5727 5728 5729 5732 5735 5739 5745 5749 5753 5758 5761 5761 5761 5760 5758 5757 5756 5756 5755 5754 5754 5753 5753 5752 5752 5751 5750 5749 5749 5748 5748 5747 5747 5746 5745 5745
5700 5703 5706 5709 5713 5716 5719 5722 5724 5725 5727 5730 5734 5739 5742 5747 5753 5758 5760 5761 5762 5760 5758 5757 5756 5755 5754 5754 5753 5753 5752 5751 5750 5749 5749 5748 5747 5747 5746 5745 5745 5744 5743
5692 5696 5699 5703 5706 5709 5712 5715 5718 5721 5723 5726 5730 5733 5737 5742 5749 5753 5757 5760 5762 5761 5760 5758 5756 5755 5754 5754 5753 5752 5752 5751 5750 5749 5748 5747 5746 5745 5745 5744 5743 5742 5741
5686 5689 5692 5696 5699 5702 5705 5709 5712 5714 5717 5721 5721 5723 5729 5736 5743 5747 5752 5756 5759 5760 5760 5759 5757 5756 5754 5754 5753 5752 5751 5750 5749 5748 5747 5746 5745 5744 5743 5743 5742 5741 5740
5681 5684 5687 5689 5692 5695 5698 5702 5705 5707 5711 5715 5714 5713 5714 5721 5732 5742 5747 5751 5755 5757 5758 5759 5757 5758 5756 5754 5753 5752 5751 5750 5749 5748 5746 5745 5744 5743 5742 5741 5740 5739 5738
5678 5679 5681 5683 5686 5689 5691 5695 5699 5701 5702 5707 5712 5710 5708 5710 5720 5732 5740 5746 5750 5752 5755 5757 5758 5758 5758 5756 5754 5752 5751 5750 5749 5747 5746 5745 5743 5742 5741 5740 5739 5738 5736
5674 5675 5677 5679 5681 5683 5686 5689 5694 5696 5698 5699 5704 5710 5713 5716 5713 5717 5729 5739 5744 5748 5751 5754 5757 5758 5758 5758 5756 5754 5751 5749 5748 5747 5745 5744 5743 5741 5740 5738 5737 5736 5735
5670 5671 5673 5674 5676 5678 5680 5683 5687 5690 5693 5695 5698 5702 5705 5709 5713 5711 5714 5725 5733 5741 5748 5750 5752 5756 5757 5757 5756 5753 5751 5749 5747 5746 5744 5743 5742 5740 5738 5737 5735 5734 5732
5666 5667 5669 5669 5671 5673 5675 5677 5680 5684 5687 5690 5694 5697 5700 5701 5704 5707 5709 5714 5721 5730 5738 5744 5747 5751 5753 5754 5755 5753 5750 5747 5746 5744 5743 5742 5740 5739 5737 5735 5734 5732 5730
5662 5663 5664 5665 5666 5668 5670 5672 5674 5677 5681 5684 5688 5692 5696 5700 5703 5705 5705 5708 5713 5721 5729 5735 5742 5746 5749 5751 5752 5750 5747 5745 5744 5742 5741 5740 5738 5737 5735 5733 5731 5730 5728
5661 5662 5662 5662 5663 5664 5665 5667 5669 5671 5675 5679 5683 5687 5690 5695 5699 5701 5702 5703 5703 5709 5717 5724 5735 5741 5743 5746 5747 5746 5743 5742 5741 5740 5738 5737 5736 5734 5733 5731 5729 5727 5725
5661 5660 5660 5660 5660 5660 5661 5662 5663 5665 5669 5672 5676 5681 5685 5689 5693 5697 5700 5701 5699 5699 5705 5716 5723 5733 5736 5739 5741 5740 5740 5739 5738 5737 5736 5734 5733 5731 5730 5728 5726 5724 5722
5659 5658 5657 5657 5657 5657 5657 5657 5657 5660 5663 5666 5670 5674 5678 5683 5688 5692 5695 5697 5700 5699 5700 5710 5717 5724 5730 5732 5733 5735 5737 5736 5735 5734 5732 5731 5730 5728 5726 5725 5723 5720 5718
5659 5657 5656 5655 5653 5653 5652 5652 5653 5655 5657 5660 5664 5668 5672 5677 5681 5686 5689 5691 5694 5696 5696 5703 5711 5717 5722 5724 5726 5729 5731 5731 5730 5730 5729 5727 5726 5724 5723 5721 5718 5716 5714
5657 5655 5653 5652 5650 5649 5648 5648 5648 5650 5651 5654 5658 5662 5666 5671 5674 5679 5682 5685 5689 5692 5693 5695 5702 5707 5712 5717 5720 5722 5724 5725 5725 5724 5724 5723 5722 5720 5718 5716 5714 5712 5710
5656 5654 5651 5648 5647 5645 5645 5645 5645 5645 5647 5650 5653 5656 5660 5664 5668 5672 5676 5679 5683 5687 5689 5690 5694 5700 5704 5709 5711 5714 5716 5717 5719 5718 5717 5716 5716 5715 5714 5712 5710 5707 5705
5655 5652 5650 5647 5645 5643 5642 5641 5640 5640 5642 5645 5649 5652 5656 5660 5663 5666 5670 5673 5677 5679 5682 5684 5687 5691 5695 5700 5703 5704 5705 5708 5709 5711 5710 5709 5709 5708 5708 5706 5704 5702 5700
5656 5652 5649 5646 5644 5641 5639 5636 5636 5637 5638 5641 5645 5649 5653 5657 5660 5662 5665 5668 5670 5672 5675 5678 5680 5683 5686 5690 5693 5697 5697 5699 5700 5703 5702 5702 5702 5701 5700 5700 5698 5697 5694
5656 5653 5649 5646 5643 5640 5638 5636 5634 5633 5635 5637 5641 5645 5649 5653 5656 5658 5661 5663 5666 5667 5669 5671 5674 5677 5681 5685 5688 5689 5690 5690 5690 5695 5696 5694 5695 5695 5695 5694 5693 5691 5689
5657 5653 5650 5646 5643 5640 5637 5635 5634 5633 5634 5636 5639 5642 5645 5649 5651 5653 5656 5659 5661 5664 5666 5668 5670 5674 5678 5682 5683 5683 5684 5685 5686 5690 5688 5686 5687 5687 5688 5687 5686 5684 5682
5658 5654 5650 5647 5644 5641 5638 5635 5633 5633 5635 5636 5638 5640 5641 5643 5645 5647 5649 5652 5655 5659 5663 5665 5668 5672 5675 5678 5679 5679 5679 5678 5678 5679 5682 5678 5679 5678 5679 5678 5678 5677 5675
5659 5656 5652 5649 5645 5642 5640 5636 5633 5633 5634 5635 5637 5638 5639 5640 5642 5644 5645 5647 5650 5654 5659 5663 5666 5668 5670 5672 5672 5670 5669 5669 5668 5669 5672 5672 5671 5669 5668 5668 5668 5668 5667
5661 5658 5655 5652 5648 5644 5641 5638 5634 5632 5632 5633 5634 5636 5638 5638 5639 5640 5641 5642 5645 5649 5653 5657 5659 5662 5664 5666 5667 5667 5667 5664 5663 5661 5664 5665 5663 5662 5658 5658 5659 5658 5657